Location: Rounton
(54.4000°N, 1.3500°W)
Time: 20:58:19
(UTC+01:00)

deb Delta 126 - Pass Details

Date: 05 July 2022
Orbit: 1120 x 1970 km, 101.5° (Epoch: 17 August)

Event Time Altitude Azimuth Distance (km) Brightness Sun altitude
Rises 01:08:31 0° 37° (NE) 4,958 ? -12.8°
Reaches altitude 10° 01:12:15 10° 23° (NNE) 4,087 ? -12.8°
Maximum altitude 01:19:05 22° 340° (NNW) 3,395 ? -12.8°
Drops below altitude 10° 01:26:20 10° 297° (WNW) 4,373 ? -12.7°
Sets 01:30:31 0° 284° (WNW) 5,399 ? -12.7°
